CAPE
608 855 1716 1672 1964 1594 1671 1807 1506 1054 1042 1122 1142 1301 1323 1149 1169 1185 978 696 566 782 594 742 942 1331 1645 1700 1743 1742 1711 1749 1551 1504 983 1211 1803 1935 1854 2262 1972 2328 2863
779 1041 1494 1619 1869 1663 1601 1705 1606 1248 1189 823 877 1391 1577 1572 1319 1349 1404 1339 1370 1151 1025 845 719 620 938 1665 1642 1785 1776 1652 1336 1229 1060 1623 1990 1551 2110 1661 1209 2343 2805
888 1092 1194 1589 1763 1725 1500 1593 1657 1490 1164 926 1156 1204 1309 1339 1369 1010 1320 1384 1599 1484 1449 1507 1322 1332 1532 1410 1575 1568 1433 1142 1385 1249 1318 1184 1394 1908 2012 1605 130 2412 2304
923 997 980 1153 1622 1792 1691 1619 1543 1460 1279 1130 1462 1483 1273 1166 1443 1482 1278 1523 1391 1335 1273 952 860 847 1284 1301 1409 1224 1298 873 930 1500 1399 1194 1155 1790 1616 1545 1760 2313 2436
806 1003 1331 1244 1731 1545 1573 1598 1712 1625 1555 1550 1357 1409 1155 1541 1556 1381 1563 1311 1428 1488 1321 1266 1099 873 693 1193 1231 905 778 622 909 1357 761 737 782 1620 1896 1489 1535 2188 1946
663 1241 1180 1675 1393 1553 1552 1530 1530 1423 1469 1143 1275 1223 1491 1502 1459 1380 1241 1394 1580 1324 1330 1298 1065 1039 1056 1040 912 826 765 645 841 920 260 464 742 1435 1840 1683 1512 1549 1639
568 1094 1002 1436 1234 1283 1146 1593 1394 1454 1449 1545 1609 1579 1364 1067 1457 1561 1647 1546 1292 1303 1282 1325 1222 1140 1121 1228 1311 1305 1310 1267 1677 314 361 732 1035 1328 1499 1243 1771 1894 1807
425 339 677 1261 1257 1207 1046 1280 1256 1311 1453 1667 1510 1426 1003 1177 1543 1640 1683 1339 1312 1272 1297 1290 1189 1133 1196 1346 1236 909 570 511 765 576 311 941 506 1294 1827 1809 1352 1201 1504
215 346 529 834 1188 1377 1374 1175 1391 1368 1476 1479 1716 1154 1031 1849 1685 1439 1330 1285 1268 1198 1218 1293 1320 1328 1313 1307 1125 985 418 62 367 673 511 954 295 928 1634 1666 1787 1642 1550
86 182 276 258 316 517 668 1288 1275 1573 1464 1367 1542 1137 1553 1565 1446 1313 1055 942 1078 955 1010 1179 1306 1391 1476 1288 1045 1115 836 889 1160 859 1080 792 162 723 1430 1410 1463 1559 1259
34 55 174 118 456 533 336 806 1101 1360 1475 1108 1046 1316 1089 544 603 456 1253 664 873 1008 1047 992 1099 1324 574 470 1171 969 957 1876 660 559 1214 648 312 507 1448 1678 1679 1551 1568
7 30 99 139 199 146 152 650 588 729 425 201 104 369 617 378 594 800 805 276 337 448 303 446 683 615 386 918 1111 1219 860 1508 937 491 1386 689 421 486 885 1286 1476 1383 1543
3 6 14 47 151 152 129 183 167 256 146 25 294 484 512 469 711 497 637 202 614 857 627 955 941 764 754 848 1173 899 876 817 661 742 853 258 425 722 943 1302 1382 1596 1524
2 5 6 26 26 99 184 22 43 107 185 0 212 752 644 662 543 503 574 561 1415 449 390 397 339 957 1145 1435 1059 734 678 539 67 963 245 143 327 769 1202 1097 1274 1871 1608
0 0 1 8 4 20 265 36 150 217 56 2 58 456 495 276 348 583 545 741 761 709 721 445 284 839 1212 990 1157 846 699 385 865 632 1282 804 388 602 1139 1542 1377 1715 1761
0 0 0 0 46 70 10 30 11 60 0 0 0 54 493 291 435 562 803 855 697 639 526 583 852 1084 1221 1178 705 658 286 398 408 345 525 1007 833 632 675 1059 1626 1656 1667
0 0 0 0 25 62 31 114 58 4 0 0 0 90 271 583 836 1131 811 1008 874 803 1021 1043 1457 1270 1355 806 741 595 199 412 148 635 430 1081 1434 1021 899 773 1055 1338 1535
0 0 0 0 0 8 35 79 0 0 0 0 48 256 763 1187 1647 1919 1244 696 853 590 534 1089 987 1225 1162 870 460 104 240 343 543 301 242 601 264 1915 1525 1077 802 1069 1291
0 0 0 0 0 0 5 0 0 0 110 80 122 171 1349 1334 1442 1935 1081 851 1524 668 844 1032 961 1194 392 487 285 130 106 437 132 86 283 252 220 484 978 1994 1012 911 1191
26 0 0 0 0 0 0 0 0 56 124 102 88 180 1262 1187 1235 1308 807 1184 1720 1124 731 1959 1735 1276 790 573 608 377 304 197 61 52 155 275 598 1375 1861 2189 2005 1694 1130
122 137 0 0 0 0 0 0 0 75 80 138 209 278 906 1190 1472 1745 1201 981 1333 1181 2147 1657 1248 1085 665 203 104 113 251 152 57 87 199 460 833 407 448 665 2260 1414 1017
289 233 319 0 0 0 0 0 5 49 70 150 187 387 1049 1381 1481 1518 1498 1075 1894 1623 1713 1354 758 326 265 101 52 101 53 211 103 124 63 122 307 253 318 346 420 532 151
488 512 444 404 100 126 0 0 28 82 89 97 168 757 1169 1721 2016 2024 2167 2142 2548 1140 1388 1094 675 259 37 52 3 68 45 55 68 31 33 79 66 16 62 193 23 2 2
665 775 775 882 448 325 175 8 154 108 53 6 70 604 2106 2591 2565 2056 2041 2040 1863 987 824 493 284 89 10 0 0 35 133 125 25 63 2 4 3 0 0 10 43 2 1
634 785 1019 1309 1286 814 619 97 212 234 261 187 1154 1752 1815 1449 1406 1359 1933 1618 1340 444 406 330 297 212 137 56 94 19 177 299 307 95 108 0 0 0 0 0 2 13 0
808 769 891 1562 1808 1426 1589 854 902 630 456 965 1395 1762 1211 1075 1114 1020 1214 1317 1099 730 374 255 232 143 261 146 112 97 267 169 95 81 35 32 1 0 0 0 0 0 0
CIN
-27 -41 0 0 -1 0 0 -1 0 -13 -9 -10 -6 -2 -1 -3 -1 0 -3 -16 -23 -14 -19 -12 -10 -2 0 0 0 -1 -3 -3 -24 -31 -72 -55 -11 -6 -11 -4 -9 -2 0
-8 -14 -4 -1 0 0 0 0 0 -3 -5 -13 -11 0 0 0 0 0 0 0 0 -1 -2 -10 -13 -17 -7 -1 0 0 0 -5 -25 -38 -59 -32 -5 -15 -5 -3 -24 -3 0
-3 -6 -8 -1 0 0 0 0 0 0 -1 -7 -3 0 0 -1 0 -3 0 0 0 0 0 0 0 0 0 0 0 0 -4 -25 -22 -37 -38 -2 -1 -4 -3 -5 -33 0 0
-3 -7 -3 -12 -1 0 0 -1 -1 0 0 -2 0 -1 -2 -3 0 0 0 0 0 0 0 0 -1 -2 -1 0 0 -1 -8 -33 -44 -28 -10 -10 -1 -7 -11 -4 -2 0 0
-8 -1 -13 -8 0 0 -1 0 0 0 0 -1 -2 -1 -4 0 0 0 0 0 -1 0 0 0 -1 -8 -13 -5 -2 -15 -27 -39 -44 -36 -53 -8 -4 -3 -3 -7 -6 -1 -3
-3 -2 -25 0 0 0 0 0 0 0 0 -2 -2 -3 0 0 0 0 0 0 -1 0 0 0 -7 -11 -7 -11 -16 -23 -30 -50 -53 -19 -1 -36 -9 -34 -1 -2 -2 -4 -3
-4 -9 -1 0 0 -1 -3 0 0 0 0 0 0 0 0 -1 0 0 0 0 -2 0 0 0 -6 -11 -10 -9 -10 -13 -22 -36 -26 -4 -4 -50 -41 -46 -21 -12 -1 -3 -2
-8 -14 -2 -2 -1 -2 -2 0 -6 -2 0 0 -1 0 -4 0 0 0 0 0 0 0 0 0 0 -4 -10 -9 -18 -35 -56 -73 -43 -4 -2 -2 -85 -33 0 0 -11 -14 -1
-39 -15 -3 -1 -2 0 0 -1 0 0 0 0 0 -2 -4 0 0 0 -1 -4 -1 -1 -3 -2 -2 -4 -9 -14 -29 -45 -84 -117 -56 -45 -2 -13 -95 -58 -8 0 0 0 0
-61 -38 -19 -14 -12 -3 -2 0 0 0 0 0 0 -1 0 0 -2 -11 -29 -39 -33 -39 -37 -26 -23 -22 -26 -41 -59 -59 -82 -79 -18 -3 -9 -36 -107 -73 -30 -17 -2 0 -3
-103 -95 -33 -30 -2 -2 -4 -1 -1 0 0 -1 -5 0 -11 -13 -41 -61 -21 -70 -72 -64 -58 -60 -56 -54 -101 -125 -87 -96 -99 -28 -4 -3 -21 -92 -100 -93 -28 -4 0 0 0
-2 -3 -67 -32 -18 -17 -18 -8 -4 -2 -16 -49 -66 -50 -11 -4 -2 -3 -29 -99 -100 -94 -88 -76 -72 -78 -98 -21 -30 -81 -60 -6 -2 -2 -41 -93 -115 -110 -77 -34 -14 -9 0
-2 -2 -3 -48 -50 -43 -38 -8 -2 -3 -4 -26 -27 -17 -4 -2 -2 -1 -6 -41 -26 -58 -12 -37 -19 -13 -2 -4 -23 -136 -94 -3 -60 -2 -63 -116 -135 -124 -98 -55 -32 -11 -8
-1 -2 -2 -2 -3 -43 -26 -7 -22 -17 -2 -1 -21 -24 -10 -15 -11 -3 -3 -5 -11 -8 -16 -14 -1 -3 -2 -2 -2 -84 -32 -43 -131 -23 -310 -124 -150 -138 -96 -83 -59 -13 -16
0 0 -2 -3 -3 -3 -6 -12 -34 -11 -33 -1 -48 -50 -20 -26 -20 -27 -33 -1 0 -1 -1 -4 -3 -5 -6 -7 -33 -7 -33 -45 -6 -56 -70 -85 -116 -136 -127 -89 -75 -38 -27
0 0 0 -1 -106 -61 -23 -53 -8 -8 0 0 0 -41 -45 -26 -7 -1 -26 -20 -1 -1 -1 -5 -8 -14 -2 -7 -38 -44 -8 -31 -27 -18 -76 -97 -75 -103 -131 -123 -93 -64 -44
0 0 0 0 -111 -79 -91 -25 -39 -10 0 0 0 -76 -62 -38 -13 -7 -3 0 -4 -1 -12 -11 -3 -3 -2 -2 -7 -7 -7 -9 -3 -4 -2 -14 -71 -45 -107 -125 -123 -107 -77
0 0 0 0 0 -122 -91 -94 0 0 0 0 -22 -54 -40 -23 -5 -1 -2 -3 -4 -9 -3 -1 -1 -1 -9 -13 -14 -14 -5 -9 -4 -11 -7 -6 -4 -10 -85 -125 -117 -119 -111
0 0 0 0 0 0 -99 0 0 0 -38 -19 -20 -4 -11 0 -1 -3 -2 -3 -12 -2 -2 -4 -2 -3 -4 -4 -3 -40 -88 -10 -2 -4 -13 -21 -9 -19 -3 -59 -94 -105 -99
-80 0 0 0 0 0 0 0 0 -35 -42 -23 -30 -2 -2 -2 -3 -10 -2 -1 -2 -2 -1 -12 -15 -23 -22 -29 -23 -8 -10 -4 -5 -2 -2 -5 -2 -18 -18 -6 -26 -50 -100
-52 -87 0 0 0 0 0 0 0 -48 -22 -3 -11 -2 -2 -7 0 0 -2 -3 -9 -1 -16 -22 -2 -2 -9 -88 -50 -31 -33 -59 -1 -3 -1 -2 -12 -92 -128 -133 -8 -42 -56
-11 -51 -66 0 0 0 0 0 -8 -26 -7 -2 -26 -5 -1 -1 -1 -1 -2 -2 -17 -12 -9 -3 -39 -60 -76 -148 -72 -52 -40 -16 -93 -2 -17 -3 -10 -31 -68 -114 -96 -73 -146
-4 -21 -54 -77 -137 -127 0 0 -53 -5 -2 -3 -3 -3 -2 -1 -1 -1 -1 -6 -15 -16 -1 -2 -17 -56 -94 -142 -140 -13 -35 -44 -54 -56 -52 -26 -50 -90 -83 -70 -162 0 0
-3 -3 -31 -63 -91 -105 -89 -27 -46 -37 -4 -2 -4 -12 -16 -1 -9 -1 -1 -1 0 -7 -14 -34 -75 -134 -242 0 0 -102 -7 -7 -19 -7 -44 -83 -111 0 0 -96 -88 0 0
-4 -3 -2 -37 -50 -58 -85 -69 -45 -22 -1 -2 -39 -25 -26 -37 -35 -27 -1 -5 -9 -66 -62 -63 -68 -114 -93 -141 -91 -53 -2 -4 -5 -23 -4 0 0 0 0 0 -2 -75 -1
-10 -12 -4 -11 -37 -51 -14 -64 -17 -37 -50 -5 -10 -13 -14 -1 -5 -6 -5 -2 -13 -29 -54 -69 -74 -89 -44 -67 -84 -24 -7 -4 -17 -14 -27 -15 -2 0 0 0 0 0 -1
Wind_Speed
20 22 27 25 24 25 24 25 26 26 26 24 25 25 24 24 23 22 22 21 21 22 22 21 21 21 21 21 20 19 19 22 22 21 20 19 21 22 24 20 25 16 16
21 14 27 25 25 25 26 26 26 26 24 23 22 22 23 24 24 23 23 23 23 23 23 22 22 22 22 22 22 21 21 22 22 22 22 22 21 21 18 9 16 21 21
24 8 27 25 25 25 26 26 26 25 24 23 22 23 23 23 23 23 24 24 25 24 24 23 22 23 23 23 22 22 22 21 22 23 24 22 20 19 13 14 29 21 20
18 25 24 26 25 26 26 24 25 25 24 23 23 23 24 24 24 24 24 25 25 25 24 24 23 23 23 23 23 21 21 21 21 21 22 22 21 20 19 19 21 19 18
21 19 16 25 26 26 26 25 23 22 22 22 23 24 25 25 25 24 24 25 25 24 21 20 23 23 23 23 22 21 20 20 18 15 21 21 23 21 21 19 18 16 17
15 11 17 25 26 27 26 25 23 23 22 23 24 24 25 24 24 24 23 24 25 23 22 20 21 21 21 21 20 19 19 18 15 17 16 24 23 23 22 23 16 15 15
12 11 15 25 27 26 25 22 22 23 23 23 23 24 25 24 24 24 24 23 21 21 21 20 19 19 19 19 19 18 17 16 15 18 18 20 23 23 23 22 21 19 15
10 12 11 14 26 24 22 25 24 22 23 23 25 25 25 26 25 25 23 22 22 20 18 18 17 17 17 17 17 17 16 15 15 20 19 22 23 22 22 22 21 20 19
3 8 13 23 24 23 24 25 22 20 20 22 25 25 26 25 24 24 23 21 20 20 18 17 17 16 16 16 16 16 16 15 14 18 20 21 21 21 21 20 20 20 19
14 5 19 13 28 28 26 23 21 19 23 22 24 25 25 24 24 24 24 23 20 19 17 16 16 16 16 16 16 17 17 16 14 19 20 22 20 21 20 20 20 19 20
24 13 21 21 29 28 18 17 18 20 21 23 26 25 26 26 25 24 18 23 21 18 17 16 16 16 16 17 18 19 20 18 18 16 17 22 21 20 20 19 20 19 18
28 25 28 27 7 24 9 7 28 28 28 27 27 26 26 25 8 8 6 21 18 17 16 16 16 16 17 20 22 20 21 21 19 19 19 20 20 20 20 19 19 18 18
29 28 28 20 8 25 8 12 28 28 25 25 26 26 25 10 8 23 12 21 19 18 15 16 15 15 15 16 14 14 19 17 14 17 19 18 18 18 18 18 18 18 18
29 26 27 21 6 25 9 19 14 26 9 15 13 25 16 24 11 20 15 17 17 16 15 15 15 16 17 17 17 13 17 13 20 9 10 17 16 16 16 16 17 17 17
25 22 19 4 5 25 17 17 18 14 12 14 4 13 22 25 23 22 21 20 18 16 19 17 16 17 17 19 17 18 18 14 7 18 15 14 13 13 14 13 14 15 17
18 18 15 9 6 8 6 12 18 15 6 15 10 3 11 19 15 21 21 22 21 20 20 21 21 20 20 20 15 21 20 20 21 8 18 14 12 9 10 12 13 14 15
12 13 11 9 5 1 1 6 7 7 8 8 11 9 8 15 18 23 23 21 22 21 21 17 19 22 20 22 23 15 21 20 22 21 21 14 9 6 7 7 9 11 13
7 7 8 10 8 4 2 3 5 11 9 10 11 8 13 19 21 18 20 20 18 20 17 17 19 19 22 25 25 25 25 24 20 23 18 22 21 4 7 8 10 9 8
5 4 4 5 6 6 2 5 11 9 15 12 14 15 10 18 18 20 20 19 18 18 17 19 20 19 24 26 28 17 19 18 24 24 24 24 22 23 16 6 7 7 8
6 5 3 1 1 2 2 8 6 6 12 15 13 15 8 14 15 16 19 19 17 17 15 16 20 23 24 27 29 29 27 27 21 22 22 22 20 23 23 19 11 2 6
6 3 4 3 2 4 5 7 9 14 14 15 14 14 16 17 12 14 18 14 10 10 16 19 19 20 23 27 30 33 33 30 13 17 20 19 20 21 22 24 23 17 15
7 5 3 2 3 4 8 10 11 12 12 13 13 11 13 15 16 14 15 18 16 14 17 17 22 25 24 26 30 32 32 28 27 17 19 20 19 17 19 19 20 15 15
10 6 5 4 4 4 6 9 12 16 19 15 16 13 13 14 14 15 17 17 18 16 15 19 23 27 30 28 27 27 26 25 26 23 18 19 19 18 17 18 17 16 15
11 10 10 7 6 5 6 7 10 12 15 17 17 15 10 13 15 16 15 13 13 15 18 22 22 25 28 30 30 32 32 20 25 25 17 17 15 16 18 16 15 15 14
8 9 10 8 8 7 7 8 9 13 14 17 13 12 14 16 16 16 14 12 14 17 19 20 23 26 24 32 30 10 16 29 14 30 25 17 18 19 20 20 17 12 12
5 7 8 8 9 10 11 12 11 9 15 17 17 17 17 18 17 18 18 18 19 19 20 22 22 21 24 29 29 30 29 25 24 24 24 20 15 17 17 16 16 16 15
Wind_Direction
94 100 146 152 151 130 145 138 120 129 135 152 138 134 137 138 144 147 146 145 139 122 118 110 102 112 112 125 134 148 147 121 105 99 92 78 98 103 116 101 131 75 75
97 79 129 150 153 139 132 135 127 145 160 161 157 154 147 143 143 145 141 137 130 121 121 116 119 117 126 124 127 130 130 119 116 107 97 98 92 101 92 44 204 89 87
99 57 154 152 134 138 135 142 148 158 162 162 161 152 151 150 146 147 139 135 124 129 127 121 132 130 131 134 134 132 133 134 130 121 116 107 86 81 60 72 175 96 93
87 113 118 142 125 141 145 159 157 161 165 168 163 160 156 147 146 146 141 130 129 129 129 127 129 136 137 134 135 138 136 141 140 142 130 112 92 93 89 92 109 96 92
93 97 80 125 130 147 148 162 172 174 173 172 168 162 154 151 150 147 145 137 134 134 148 145 135 135 136 134 137 138 140 146 153 165 135 148 94 99 105 93 97 90 95
76 65 83 121 131 152 155 162 175 176 177 172 166 161 154 155 154 147 146 138 134 140 145 149 145 143 140 138 140 142 145 153 164 157 152 112 112 107 119 130 82 79 78
69 59 83 124 150 162 168 182 181 179 178 175 173 166 159 158 155 149 145 147 149 149 147 152 153 151 146 143 144 145 149 160 165 145 147 118 94 111 124 124 116 102 85
73 66 68 105 173 180 186 175 179 186 183 181 173 164 157 153 153 144 146 149 145 152 161 158 162 158 157 153 148 146 151 168 165 133 147 115 100 118 131 131 128 124 120
330 67 84 121 183 189 182 180 193 199 197 188 172 165 162 163 156 150 150 153 157 157 165 164 166 168 166 162 157 154 155 170 187 157 147 113 111 121 133 136 136 140 139
225 44 103 95 167 166 178 195 203 209 193 192 180 173 172 172 160 155 145 140 161 168 175 179 178 181 180 168 163 158 159 168 179 148 140 102 117 129 136 140 145 145 151
195 231 111 191 167 173 211 217 218 210 204 195 180 177 167 153 148 139 137 146 150 166 182 185 188 187 187 175 158 150 151 158 153 168 59 97 118 130 141 148 153 154 151
163 139 158 147 90 202 244 242 181 165 173 175 166 147 169 155 104 192 111 159 174 181 178 172 176 186 201 209 182 173 160 136 139 123 74 103 123 136 146 148 152 154 156
180 180 169 126 247 145 247 230 192 182 189 199 196 173 191 272 320 178 68 171 178 177 203 157 162 195 216 243 199 108 158 106 307 91 97 94 117 133 144 151 152 156 160
176 156 163 220 261 213 257 219 244 205 260 243 251 213 245 184 88 230 266 245 248 239 251 223 232 270 220 233 239 179 326 222 227 163 287 75 99 127 139 147 157 163 163
150 145 136 86 272 223 242 244 245 252 262 258 295 250 225 188 201 177 220 230 269 289 242 235 229 245 225 234 239 260 358 210 56 284 85 53 77 117 142 146 154 160 168
134 135 129 115 112 264 264 258 245 257 286 258 274 324 240 251 275 242 243 229 240 263 281 281 276 262 253 256 319 298 271 319 275 141 357 162 49 96 129 151 156 165 166
116 124 124 121 117 237 231 263 269 279 277 275 273 282 292 275 270 245 241 266 271 284 296 323 300 257 231 261 276 230 289 258 291 303 271 334 89 89 109 134 149 153 164
93 106 117 126 125 130 230 234 264 269 274 274 278 293 277 267 263 280 280 288 304 301 313 318 309 317 305 283 278 296 292 295 320 281 236 285 252 87 103 137 155 158 153
86 89 112 118 127 133 170 263 266 271 265 273 273 276 284 273 280 279 285 299 313 306 309 307 316 322 308 303 283 343 219 343 297 282 295 279 301 270 243 120 136 151 159
98 92 106 112 255 160 223 267 265 270 271 272 277 276 291 286 289 293 291 299 309 313 322 323 315 314 313 311 297 296 309 299 323 309 312 298 314 298 301 320 356 38 168
119 103 120 141 257 257 258 258 261 265 269 274 279 282 287 287 298 299 295 310 325 323 320 321 325 326 319 314 314 293 288 293 336 329 320 328 329 321 313 308 313 339 335
145 140 139 183 206 237 266 265 270 273 277 281 285 285 289 293 293 300 303 303 317 331 324 324 319 315 319 319 308 293 280 295 293 334 330 328 336 347 342 336 332 342 344
161 169 179 177 205 214 250 267 273 280 280 284 285 289 290 291 298 302 305 309 313 317 320 318 316 313 312 313 306 295 302 289 302 317 333 330 335 347 351 357 352 351 350
178 172 174 189 201 215 233 257 267 274 280 282 290 293 310 305 308 305 308 310 315 317 316 314 318 317 313 309 298 276 239 285 307 304 329 334 346 351 347 358 3 1 358
203 195 189 198 215 228 222 244 262 273 285 287 295 302 301 304 310 308 308 310 308 311 316 319 317 316 320 295 290 307 291 283 312 284 297 323 327 331 334 339 349 8 6
258 251 230 215 247 247 255 249 262 265 276 292 292 295 299 301 303 303 303 301 303 306 310 314 319 323 313 287 279 280 278 291 299 297 299 306 324 333 342 348 345 346 349